Volver al catálogo

NIMBUS 2 DEB

LostSSO
NORAD 28614·DEBRIS·🇺🇸 United States

Lanzado May 15, 1966 desde Vandenberg Space Force Base

Loading…

Próximos Pases (próximas 24 horas)

TLE

ObsoletoSource: Space-Track

Época: Jan 25, 2014, 12:13 UTC

1 28614U 66040AD  14025.50939937 -.00000329  00000-0 -49682-3 0  9992
2 28614 100.3417 128.0335 0037753 318.0196 104.4689 13.42437531478480

Sigue NIMBUS 2 DEB en tiempo real con AllMySat

Download on the App Store